Regional Weather Roundup
Issued by NWS

Home | Current Version | Previous Version | Text Only | Print | Product List | Glossary Off
Versions: 1 2 3 4 5 6 7 8 9 10 11 12 13 14 15 16 17 18 19 20 21 22 23 24 25 26 27 28 29 30 31 32 33 34 35 36 37 38 39 40 41 42 43 44 45 46 47 48 49 50

118
ASUS45 KCYS 311610
RWRWY

WYOMING REGIONAL WEATHER ROUNDUP
NATIONAL WEATHER SERVICE CHEYENNE WY
1000 AM MDT TUE MAY 31 2016

NOTE:  "FAIR" INDICATES FEW OR NO CLOUDS BELOW 12,000 FEET
WITH NO SIGNIFICANT WEATHER AND/OR OBSTRUCTIONS TO VISIBILITY.

WYZ001-311700-
YELLOWSTONE NATIONAL PARK

CITY           SKY/WX    TMP DP  RH WIND       PRES   REMARKS
LK YELLOWSTONE   N/A     44  21  40 NW7       30.28S
W YELLOWSTONE  NOT AVBL

$$
WYZ002>013-054>058-071-098>099-311700-
NORTHERN WYOMING

CITY           SKY/WX    TMP DP  RH WIND       PRES   REMARKS
JACKSON        SUNNY     52  23  32 NE9       30.22S
CODY           FAIR      52  36  54 NE7       30.19S
GREYBULL       FAIR      60  28  29 N23G31    30.14F
WORLAND        FAIR      59  31  34 N15G23    30.17S
SHERIDAN       CLOUDY    56  35  45 NW30G40   30.12S
BUFFALO        FAIR      53  33  46 N35G49    30.09F
GILLETTE       CLOUDY    50  33  52 NW28G39   30.07R
HULETT         CLOUDY    48  36  61 W15G28    30.04S
NEWCASTLE      FAIR      54  30  40 NW16G26   30.09F

$$
WYZ014>020-022>026-101>103-311700-
CENTRAL WYOMING

CITY           SKY/WX    TMP DP  RH WIND       PRES   REMARKS
BIG PINEY      FAIR      51  34  52 SW6       30.20F
PINEDALE       FAIR      50  34  53 CALM      30.21F
DUBOIS         FAIR      52  18  25 N8        30.18F
LANDER         FAIR      53  37  54 CALM      30.17S
RIVERTON       PTSUNNY   53  34  48 E8        30.19S
CASPER         FAIR      54  39  57 W14       30.16F
DOUGLAS          N/A    N/A N/A N/A MISG      30.14F

$$
WYZ021-027>030-104>119-311700-
SOUTHERN WYOMING

CITY           SKY/WX    TMP DP  RH WIND       PRES   REMARKS
EVANSTON       FAIR      55  38  52 VRB3      30.19S
KEMMERER         N/A     54  32  43 CALM      30.20S
FORT BRIDGER   SUNNY     54  34  47 N3        30.22S
ROCK SPRINGS   FAIR      52  40  63 CALM      30.18F
DIXON          FAIR      55  41  61 SW3       30.19F
RAWLINS        PTSUNNY   51  37  58 MISG      30.18S
SARATOGA       FAIR      52  41  66 N9        30.18F
LARAMIE        FAIR      52  39  61 CALM      30.16S
CHEYENNE       FAIR      53  34  48 SW7       30.15F
TORRINGTON     PTSUNNY   57  44  62 SW7       30.12S
PINE BLUFFS    CLOUDY    52  32  46 CALM      30.15F

$$




USA.gov is the U.S. government's official web portal to all federal, state and local government web resources and services.